Regional Weather Roundup
Issued by NWS Goodland, KS

Home | Current Version | Previous Version | Text Only | Print | Product List | Glossary Off
Versions: 1 2 3 4 5 6 7 8 9 10 11 12 13 14 15 16 17 18 19 20 21 22 23 24 25 26 27 28 29 30 31 32 33 34 35 36 37 38 39 40 41 42 43 44 45 46 47 48 49 50

000
ASUS43 KGLD 210159
RWRGLD

GOODLAND FORECAST AREA HOURLY WEATHER ROUNDUP
NATIONAL WEATHER SERVICE GOODLAND KS
800 PM MDT THU JUL 20 2017

...OFFICIAL OBSERVATIONS...

CITY           SKY/WX    TMP DP  RH WIND       PRES   REMARKS
GOODLAND KS    CLEAR     83  67  58 S7        29.95R
HILL CITY KS   CLEAR     93  59  31 S9        29.87S
IMPERIAL NEB   CLEAR     88  64  44 W3        29.90S
MCCOOK NEB     CLEAR     90  61  37 SE6       29.87R
AKRON CO       CLOUDY    85  57  38 E8        30.04R
BURLINGTON CO  CLEAR     83  64  52 SE6       30.00S
LIMON CO       TSTM      75  60  59 N14       30.11R
$$

...UNOFFICIAL OBSERVATIONS...

CITY           SKY/WX    TMP DP  RH WIND       PRES   REMARKS
LENORA KS        N/A     89  32  13 MISG        N/A
NORTON KS      CLEAR     90  52  27 SE9       29.87R
SHARON SPRINGS   N/A     87  67  50 CALM        N/A
TRENTON NEB      N/A     92  32  12 CALM        N/A
KIT CARSON CO    N/A     88  63  42 CALM        N/A
YUMA CO        FAIR      81  50  34 E3        29.99R
$$



USA.gov is the U.S. government's official web portal to all federal, state and local government web resources and services.